CW2327 Weather Reports


time (UTC)temp
F
wind
direction
speed
knots
gust
knots
rain 1hr
in
rain 24hr
in
rain mn
in
humidity
%
barometer
mb
20240614131949 76 6 3.5 7.0 0.00 0.00 0.00 75 1018.0
20240614131449 76 6 0.0 6.1 0.00 0.00 0.00 75 1017.0
20240614130949 75 11 3.5 6.1 0.00 0.00 0.00 75 1017.0
20240614130449 75 0 0.0 0.0 0.00 0.00 0.00 75 1017.0
20240614125950 75 0 0.0 0.0 0.00 0.00 0.00 75 1017.0
20240614125449 75 2 0.0 4.3 0.00 0.00 0.00 75 1017.0
20240614124949 74 2 0.0 4.3 0.00 0.00 0.00 75 1018.0
20240614124448 74 2 0.0 4.3 0.00 0.00 0.00 76 1018.0
20240614123949 74 5 0.0 4.3 0.00 0.00 0.00 76 1018.0
20240614123449 74 10 0.0 6.1 0.00 0.00 0.00 76 1017.0
20240614122949 74 16 3.5 6.1 0.00 0.00 0.00 76 1017.0
20240614122448 74 11 0.0 4.3 0.00 0.00 0.00 76 1017.0
20240614121449 73 357 0.0 3.5 0.00 0.00 0.00 76 1017.0
20240614120949 73 357 0.0 4.3 0.00 0.00 0.00 76 1017.0
20240614120449 73 4 0.0 4.3 0.00 0.00 0.00 77 1017.0
20240614115949 73 11 0.0 4.3 0.00 0.00 0.00 77 1017.0
20240614115449 73 8 0.0 4.3 0.00 0.00 0.00 77 1017.0
20240614114449 73 357 2.6 3.5 0.00 0.00 0.00 77 1017.0
20240614113949 73 342 0.0 3.5 0.00 0.00 0.00 77 1017.0
20240614113449 73 0 0.0 0.0 0.00 0.00 0.00 77 1017.0
20240614112949 73 0 0.0 0.0 0.00 0.00 0.00 76 1017.0
20240614112449 73 0 0.0 0.0 0.00 0.00 0.00 76 1017.0
20240614111949 73 4 0.0 2.6 0.00 0.00 0.00 76 1016.0
20240614111449 73 359 0.0 3.5 0.00 0.00 0.00 76 1016.0
20240614110949 73 5 2.6 3.5 0.00 0.00 0.00 76 1016.0
20240614110449 73 14 0.0 3.5 0.00 0.00 0.00 76 1016.0
20240614104449 73 4 0.0 3.5 0.00 0.00 0.00 75 1016.0
20240614103949 73 3 0.0 3.5 0.00 0.00 0.00 76 1016.0
20240614103449 73 2 0.0 3.5 0.00 0.00 0.00 74 1015.0
20240614102949 73 5 0.0 3.5 0.00 0.00 0.00 74 1015.0
20240614101449 73 0 0.0 0.0 0.00 0.00 0.00 73 1015.0
20240614100950 73 219 0.0 2.6 0.00 0.00 0.00 73 1015.0
20240614100449 73 303 0.0 3.5 0.00 0.00 0.00 73 1015.0
20240614095949 73 9 2.6 3.5 0.00 0.00 0.00 72 1015.0
20240614095449 73 0 0.0 0.0 0.00 0.00 0.00 72 1015.0
20240614094949 73 0 0.0 0.0 0.00 0.00 0.00 72 1015.0
20240614093949 73 359 0.0 4.3 0.00 0.00 0.00 71 1015.0
20240614093449 73 0 0.0 0.0 0.00 0.00 0.00 71 1015.0
20240614092950 73 24 0.0 6.1 0.00 0.00 0.00 71 1015.0
20240614092449 73 15 0.0 6.1 0.00 0.00 0.00 71 1015.0
20240614091950 73 7 0.0 3.5 0.00 0.00 0.00 70 1015.0
20240614091449 73 359 0.0 4.3 0.00 0.00 0.00 70 1015.0
20240614090950 73 4 0.0 4.3 0.00 0.00 0.00 70 1015.0
20240614090449 73 1 2.6 5.2 0.00 0.00 0.00 69 1015.0
20240614085949 74 355 0.0 5.2 0.00 0.00 0.00 69 1015.0
20240614085449 74 1 0.0 4.3 0.00 0.00 0.00 68 1015.0
20240614084949 74 5 2.6 5.2 0.00 0.00 0.00 68 1015.0
20240614083950 75 8 3.5 6.1 0.00 0.00 0.00 67 1015.0
20240614083450 75 11 3.5 6.1 0.00 0.00 0.00 66 1015.0
20240614082950 75 7 0.0 3.5 0.00 0.00 0.00 66 1015.0
20240614082450 75 9 0.0 4.3 0.00 0.00 0.00 65 1015.0
20240614081950 75 7 0.0 4.3 0.00 0.00 0.00 64 1015.0
20240614080950 76 3 2.6 4.3 0.00 0.00 0.00 63 1015.0
20240614080449 76 5 2.6 6.1 0.00 0.00 0.00 63 1015.0
20240614075949 76 6 2.6 6.1 0.00 0.00 0.00 63 1015.0
20240614075449 76 4 0.0 5.2 0.00 0.00 0.00 63 1015.0
20240614074950 76 3 3.5 3.5 0.00 0.00 0.00 63 1015.0
20240614074450 76 3 0.0 4.3 0.00 0.00 0.00 63 1015.0
20240614073449 77 6 2.6 6.1 0.00 0.00 0.00 62 1015.0
20240614072950 77 4 2.6 6.1 0.00 0.00 0.00 61 1015.0
20240614072450 77 24 0.0 7.0 0.00 0.00 0.00 61 1015.0
20240614071950 77 23 2.6 7.0 0.00 0.00 0.00 61 1014.0
20240614071449 78 19 4.3 6.1 0.00 0.00 0.00 61 1014.0
20240614070949 77 19 2.6 5.2 0.00 0.00 0.00 62 1014.0
20240614070449 77 13 2.6 5.2 0.00 0.00 0.00 62 1014.0
20240614065449 78 2 0.0 5.2 0.00 0.00 0.00 62 1014.0
20240614064949 78 4 0.0 4.3 0.00 0.00 0.00 62 1015.0
20240614064449 78 15 2.6 3.5 0.00 0.00 0.00 63 1015.0
20240614063950 79 12 0.0 8.7 0.00 0.00 0.00 62 1015.0
20240614063450 79 13 3.5 8.7 0.00 0.00 0.00 62 1014.0
20240614062950 79 13 5.2 8.7 0.00 0.00 0.00 63 1014.0
20240614062450 79 10 6.1 8.7 0.00 0.00 0.00 64 1014.0
20240614061951 79 18 2.6 6.1 0.00 0.00 0.00 65 1014.0
20240614061450 78 26 3.5 6.1 0.00 0.00 0.00 65 1014.0
20240614060951 78 250 0.0 3.5 0.00 0.00 0.00 65 1014.0
20240614060450 78 250 0.0 3.5 0.00 0.00 0.00 65 1014.0
20240614055950 78 248 0.0 3.5 0.00 0.00 0.00 65 1014.0
20240614055449 78 22 0.0 2.6 0.00 0.00 0.00 65 1014.0
20240614054949 78 22 0.0 2.6 0.00 0.00 0.00 65 1014.0
20240614053949 79 0 0.0 0.0 0.00 0.00 0.00 65 1014.0
20240614053449 79 0 0.0 0.0 0.00 0.00 0.00 65 1014.0
20240614051950 80 0 0.0 0.0 0.00 0.00 0.00 64 1014.0
20240614051450 81 261 0.0 2.6 0.00 0.00 0.00 63 1014.0
20240614050950 81 261 0.0 2.6 0.00 0.00 0.00 63 1014.0
20240614050450 81 264 0.0 4.3 0.00 0.00 0.00 63 1014.0
20240614050007 81 37 0.0 4.3 0.00 0.00 0.00 64 1014.0
20240614045450 81 359 0.0 6.1 0.00 0.00 0.00 64 1014.0
20240614044950 81 22 0.0 7.0 0.00 0.00 0.00 64 1014.0
20240614044450 81 31 2.6 7.0 0.00 0.00 0.00 65 1014.0
20240614043450 81 14 3.5 6.1 0.00 0.00 0.00 65 1014.0
20240614042450 82 3 3.5 7.0 0.00 0.00 0.00 65 1013.0
20240614041452 82 234 0.0 3.5 0.00 0.00 0.00 66 1012.0
20240614040951 82 281 0.0 6.1 0.00 0.00 0.00 66 1012.0
20240614040450 82 269 0.0 6.1 0.00 0.00 0.00 66 1012.0
20240614035950 82 249 2.6 4.3 0.00 0.00 0.00 66 1012.0
20240614035450 83 261 2.6 6.1 0.00 0.00 0.00 66 1012.0
20240614034950 83 256 0.0 9.6 0.00 0.00 0.00 66 1012.0
20240614034450 83 259 0.0 9.6 0.00 0.00 0.00 66 1012.0
20240614033950 84 256 2.6 7.0 0.00 0.00 0.00 67 1012.0
20240614033450 84 248 0.0 9.6 0.00 0.00 0.00 67 1011.0
20240614032951 84 250 2.6 9.6 0.00 0.00 0.00 67 1011.0
20240614032450 84 248 5.2 8.7 0.00 0.00 0.00 66 1011.0
20240614031950 84 246 0.0 4.3 0.00 0.00 0.00 66 1012.0
20240614031450 85 244 0.0 4.3 0.00 0.00 0.00 66 1012.0
20240614030950 85 247 0.0 3.5 0.00 0.00 0.00 66 1012.0
20240614030451 84 266 0.0 2.6 0.00 0.00 0.00 66 1012.0
20240614025951 84 0 0.0 0.0 0.00 0.00 0.00 66 1012.0
20240614025450 85 0 0.0 0.0 0.00 0.00 0.00 66 1012.0
20240614024951 85 0 0.0 0.0 0.00 0.00 0.00 66 1011.0
20240614024451 85 0 0.0 0.0 0.00 0.00 0.00 66 1011.0
20240614023950 85 12 0.0 4.3 0.00 0.00 0.00 65 1011.0
20240614022951 86 240 0.0 4.3 0.00 0.00 0.00 65 1011.0
20240614022450 86 240 2.6 4.3 0.00 0.00 0.00 65 1011.0
20240614021950 86 232 2.6 4.3 0.00 0.00 0.00 64 1011.0
20240614021451 87 237 0.0 2.6 0.00 0.00 0.00 64 1011.0
20240614020951 87 237 0.0 4.3 0.00 0.00 0.00 64 1011.0
20240614020450 87 226 0.0 4.3 0.00 0.00 0.00 63 1010.0
20240614015951 87 214 0.0 6.1 0.00 0.00 0.00 63 1010.0
20240614014951 87 160 0.0 3.5 0.00 0.00 0.00 63 1010.0
20240614014450 87 174 0.0 3.5 0.00 0.00 0.00 63 1010.0
20240614013950 87 232 0.0 3.5 0.00 0.00 0.00 63 1010.0
20240614013450 87 0 0.0 0.0 0.00 0.00 0.00 63 1010.0
20240614012950 88 0 0.0 0.0 0.00 0.00 0.00 63 1010.0
20240614012450 87 0 0.0 0.0 0.00 0.00 0.00 63 1010.0
20240614010950 88 0 0.0 0.0 0.00 0.00 0.00 62 1010.0
20240614010451 88 205 0.0 2.6 0.00 0.00 0.00 61 1010.0
20240614005951 89 207 0.0 2.6 0.00 0.00 0.00 61 1010.0
20240614004951 89 185 0.0 2.6 0.00 0.00 0.00 61 1010.0
20240614004451 89 184 0.0 2.6 0.00 0.00 0.00 61 1010.0
20240614003450 90 170 0.0 3.5 0.00 0.00 0.00 61 1010.0
20240614002951 90 186 0.0 3.5 0.00 0.00 0.00 61 1010.0
20240614002451 90 201 0.0 3.5 0.00 0.00 0.00 60 1010.0
20240614001451 90 194 0.0 3.5 0.00 0.00 0.00 60 1010.0
20240614000952 91 171 0.0 2.6 0.00 0.00 0.00 60 1010.0
20240613235951 91 206 0.0 3.5 0.00 0.00 0.00 60 1009.0
20240613235451 91 196 0.0 2.6 0.00 0.00 0.00 58 1009.0
20240613234950 92 185 0.0 3.5 0.00 0.00 0.00 58 1009.0
20240613234450 92 178 0.0 4.3 0.00 0.00 0.00 57 1009.0
20240613233451 93 202 0.0 4.3 0.00 0.00 0.00 57 1009.0
20240613232951 93 207 0.0 4.3 0.00 0.00 0.00 57 1009.0
20240613232451 93 221 0.0 4.3 0.00 0.00 0.00 57 1009.0
20240613231951 94 216 2.6 4.3 0.00 0.00 0.00 57 1009.0
20240613231450 94 199 0.0 7.0 0.00 0.00 0.00 57 1009.0
20240613230950 94 198 3.5 7.0 0.00 0.00 0.00 57 1009.0
20240613230451 94 187 2.6 6.1 0.00 0.00 0.00 57 1009.0
20240613225951 95 182 2.6 5.2 0.00 0.00 0.00 56 1010.0
20240613225450 95 189 2.6 6.1 0.00 0.00 0.00 57 1010.0
20240613224950 95 192 2.6 6.1 0.00 0.00 0.00 57 1010.0
20240613223951 95 193 0.0 7.0 0.00 0.00 0.00 56 1010.0
20240613222951 95 186 3.5 6.1 0.00 0.00 0.00 56 1010.0
20240613222451 95 186 3.5 7.0 0.00 0.00 0.00 56 1010.0
20240613221951 95 199 2.6 7.8 0.00 0.00 0.00 56 1010.0
20240613221452 95 208 4.3 7.8 0.00 0.00 0.00 55 1010.0
20240613220952 96 196 3.5 7.0 0.00 0.00 0.00 56 1010.0
20240613220451 96 211 2.6 7.0 0.00 0.00 0.00 55 1010.0
20240613215951 96 221 4.3 7.0 0.00 0.00 0.00 56 1010.0
20240613215451 96 194 3.5 6.1 0.00 0.00 0.00 56 1010.0
20240613214951 96 192 2.6 5.2 0.00 0.00 0.00 56 1010.0
20240613214451 96 216 0.0 6.1 0.00 0.00 0.00 57 1010.0
20240613213451 96 214 3.5 7.0 0.00 0.00 0.00 56 1010.0
20240613212451 95 190 4.3 8.7 0.00 0.00 0.00 56 1010.0
20240613211951 96 202 2.6 8.7 0.00 0.00 0.00 56 1010.0
20240613211450 96 194 3.5 7.0 0.00 0.00 0.00 56 1010.0
20240613210951 96 178 2.6 5.2 0.00 0.00 0.00 56 1010.0
20240613210451 96 179 0.0 7.8 0.00 0.00 0.00 56 1010.0
20240613205951 96 176 3.5 7.8 0.00 0.00 0.00 56 1010.0
20240613205451 96 196 3.5 8.7 0.00 0.00 0.00 55 1010.0
20240613204951 96 196 4.3 8.7 0.00 0.00 0.00 56 1010.0
20240613204453 96 174 3.5 8.7 0.00 0.00 0.00 57 1010.0
20240613203953 96 192 2.6 8.7 0.00 0.00 0.00 57 1010.0
20240613203451 96 206 3.5 8.7 0.00 0.00 0.00 56 1010.0
20240613202951 95 188 2.6 7.0 0.00 0.00 0.00 57 1010.0
20240613202451 95 181 4.3 8.7 0.00 0.00 0.00 57 1010.0
20240613201951 95 184 3.5 8.7 0.00 0.00 0.00 56 1010.0
20240613201451 95 190 2.6 7.8 0.00 0.00 0.00 57 1010.0
20240613200952 95 189 5.2 6.1 0.00 0.00 0.00 58 1010.0
20240613200451 95 182 2.6 8.7 0.00 0.00 0.00 57 1010.0
20240613195451 95 179 4.3 8.7 0.00 0.00 0.00 59 1010.0
20240613194951 94 175 4.3 6.1 0.00 0.00 0.00 58 1010.0
20240613193951 94 204 5.2 8.7 0.00 0.00 0.00 57 1010.0
20240613193452 94 194 0.0 8.7 0.00 0.00 0.00 59 1010.0
20240613192951 94 199 5.2 8.7 0.00 0.00 0.00 58 1010.0
20240613192451 94 213 2.6 7.0 0.00 0.00 0.00 59 1010.0
20240613191951 94 213 2.6 6.1 0.00 0.00 0.00 59 1010.0
20240613191451 94 191 2.6 7.0 0.00 0.00 0.00 59 1010.0
20240613190951 93 188 4.3 7.0 0.00 0.00 0.00 59 1010.0
20240613185951 93 163 4.3 6.1 0.00 0.00 0.00 59 1010.0
20240613185451 94 179 2.6 8.7 0.00 0.00 0.00 58 1010.0
20240613184951 94 195 2.6 8.7 0.00 0.00 0.00 59 1010.0
20240613184451 94 203 2.6 6.1 0.00 0.00 0.00 59 1010.0
20240613183451 93 177 3.5 7.0 0.00 0.00 0.00 58 1010.0
20240613182952 93 179 4.3 7.0 0.00 0.00 0.00 59 1010.0
20240613182452 93 185 5.2 6.1 0.00 0.00 0.00 58 1010.0
20240613181952 93 199 3.5 8.7 0.00 0.00 0.00 59 1010.0
20240613181451 93 195 5.2 8.7 0.00 0.00 0.00 59 1010.0
20240613180952 93 203 3.5 7.0 0.00 0.00 0.00 60 1010.0
20240613180451 93 202 3.5 7.0 0.00 0.00 0.00 60 1010.0
20240613175952 93 191 2.6 7.0 0.00 0.00 0.00 60 1010.0
20240613175452 93 203 3.5 7.0 0.00 0.00 0.00 59 1010.0
20240613174453 94 179 3.5 6.1 0.00 0.00 0.00 59 1010.0
20240613173952 94 172 2.6 6.1 0.00 0.00 0.00 59 1010.0
20240613172951 94 198 5.2 7.0 0.00 0.00 0.00 59 1011.0
20240613172452 95 179 2.6 7.0 0.00 0.00 0.00 59 1011.0
20240613171452 94 191 3.5 6.1 0.00 0.00 0.00 59 1011.0
20240613170451 94 191 5.2 6.1 0.00 0.00 0.00 59 1011.0
20240613165952 94 209 2.6 8.7 0.00 0.00 0.00 60 1011.0
20240613165451 93 216 2.6 8.7 0.00 0.00 0.00 61 1011.0
20240613164951 93 200 3.5 7.0 0.00 0.00 0.00 61 1011.0
20240613164451 92 182 3.5 7.0 0.00 0.00 0.00 61 1011.0
20240613163951 91 189 6.1 6.1 0.00 0.00 0.00 61 1011.0
20240613162952 92 168 3.5 6.1 0.00 0.00 0.00 60 1011.0
20240613162451 92 176 0.0 6.1 0.00 0.00 0.00 60 1011.0
20240613161952 92 198 3.5 6.1 0.00 0.00 0.00 62 1011.0
20240613161451 90 196 5.2 6.1 0.00 0.00 0.00 63 1011.0
20240613155953 88 204 3.5 6.1 0.00 0.00 0.00 65 1011.0
20240613155452 86 206 3.5 6.1 0.00 0.00 0.00 66 1011.0
20240613154953 87 210 4.3 6.1 0.00 0.00 0.00 66 1011.0
20240613154452 87 229 3.5 7.8 0.00 0.00 0.00 66 1011.0
20240613153951 87 256 2.6 9.6 0.00 0.00 0.00 67 1011.0
20240613153452 86 249 3.5 9.6 0.00 0.00 0.00 67 1011.0
20240613152952 85 208 0.0 8.7 0.00 0.00 0.00 68 1011.0
20240613152452 85 184 4.3 6.1 0.00 0.00 0.00 68 1011.0
20240613145953 83 195 2.6 5.2 0.00 0.00 0.00 70 1011.0
20240613145452 82 185 3.5 5.2 0.00 0.00 0.00 70 1011.0
20240613144952 82 194 3.5 7.0 0.00 0.00 0.00 70 1011.0
20240613144452 82 203 0.0 7.0 0.00 0.00 0.00 70 1011.0
20240613143952 82 211 3.5 6.1 0.00 0.00 0.00 70 1011.0
20240613142952 81 212 5.2 8.7 0.00 0.00 0.00 71 1011.0
20240613142452 81 206 5.2 7.0 0.00 0.00 0.00 71 1011.0
20240613141952 80 178 2.6 6.1 0.00 0.00 0.00 72 1011.0
20240613141453 80 182 0.0 6.1 0.00 0.00 0.00 72 1011.0
20240613140952 80 198 0.0 6.1 0.00 0.00 0.00 72 1011.0
20240613140452 79 206 3.5 6.1 0.00 0.00 0.00 72 1011.0
20240613135953 79 212 2.6 6.1 0.00 0.00 0.00 72 1011.0
20240613135452 79 218 3.5 7.0 0.00 0.00 0.00 72 1011.0
20240613134952 79 222 0.0 7.0 0.00 0.00 0.00 72 1011.0
20240613134452 78 202 0.0 7.0 0.00 0.00 0.00 73 1011.0
20240613133951 78 197 3.5 7.0 0.00 0.00 0.00 73 1011.0
20240613133452 78 201 3.5 8.7 0.00 0.00 0.00 73 1011.0
20240613132952 78 209 5.2 8.7 0.00 0.00 0.00 73 1011.0
20240613132452 78 200 3.5 7.0 0.00 0.00 0.00 73 1011.0